Regional Weather Roundup
Issued by NWS

Home | Current Version | Previous Version | Text Only | Print | Product List | Glossary On
Versions: 1 2 3 4 5 6 7 8 9 10 11 12 13 14 15 16 17 18 19 20 21 22 23 24 25 26 27 28 29 30 31 32 33 34 35 36 37 38 39 40 41 42 43 44 45 46 47 48 49 50
000
ASUS45 KABQ 271910
RWRNM
WEATHER ROUNDUP FOR NEW MEXICO
NATIONAL WEATHER SERVICE ALBUQUERQUE NM
100 PM MDT WED AUG 27 2014

NOTE: "FAIR" MEANS FEW OR NO CLOUDS BELOW 12,000 FEET AGL WITH NO
       SIGNIFICANT WEATHER OR OBSTRUCTIONS TO VISION.

      THIS PRODUCT IS RELEASED AS TWO VERSIONS.  ONE VERSION NEAR
      THE TOP OF THE HOUR CONTAINING PRELIMINARY DATA FROM ALBUQUERQUE
      AND OTHER STATIONS.  A FINAL VERSION WITH ADDITIONAL DATA IS
      ISSUED ABOUT 10 MINUTES AFTER THE HOUR.

NMZ501-503-504-510>518-272000-
NORTHWEST PLATEAU/NORTHCENTRAL MOUNTAINS

CITY           SKY/WX    TMP DP  RH WIND       PRES   REMARKS
FARMINGTON     SUNNY     69  51  52 CALM      30.30F
LOS ALAMOS     PTSUNNY   67  54  63 CALM      30.38F
SANTA FE       MOSUNNY   72  53  51 VRB5      30.32F
ANGEL FIRE     FAIR      64  47  55 W7G16     30.42F

$$
NMZ402-403-502-505>509-272000-
WESTCENTRAL MOUNTAINS/SOUTHWEST MOUNTAINS

CITY           SKY/WX    TMP DP  RH WIND       PRES   REMARKS
GALLUP         SUNNY     70  46  42 W8        30.36F
SILVER CITY    MOSUNNY   77  52  41 W6        30.30F

$$
NMZ407-409-411-412-272000-
SOUTHERN DESERTS

CITY           SKY/WX    TMP DP  RH WIND       PRES   REMARKS
LORDSBURG      FAIR      81  55  41 CALM      30.21F
DEMING         MOSUNNY   84  57  39 VRB3      30.21F
LAS CRUCES     CLOUDY    80  59  48 CALM      30.23F
HOLLOMAN AFB   PTSUNNY   78  65  63 VRB7      30.20F
ALAMOGORDO     PTSUNNY   73  63  68 SE3       30.23F
T OR C         MOSUNNY   78  58  49 VRB6      30.24F

$$
NMZ519>523-272000-
CENTRAL VALLEYS/CENTRAL HIGHLANDS

CITY           SKY/WX    TMP DP  RH WIND       PRES   REMARKS
ALBUQUERQUE    MOSUNNY   75  54  47 CALM      30.29F
DOUBLE EAGLE   MOSUNNY   73  54  49 W6        30.33F
MORIARTY ARPT  FAIR      75  51  43 W10       30.33F
CLINES CORNERS MOSUNNY   72  53  51 W13G21    30.35F
BELEN          FAIR      76  55  48 NW6       30.29F
SOCORRO        FAIR      75  60  58 NE3       30.27F

$$
NMZ524>526-539-540-272000-
SOUTHCENTRAL MOUNTAINS

CITY           SKY/WX    TMP DP  RH WIND       PRES   REMARKS
RUIDOSO        LGT RAIN  61  55  82 N6        30.39R

$$
NMZ527>531-272000-
NORTHEAST HIGHLANDS/NORTHEAST PLAINS

CITY           SKY/WX    TMP DP  RH WIND       PRES   REMARKS
LAS VEGAS      SUNNY     74  51  44 SE7       30.30F
RATON          SUNNY     75  53  46 MISG      30.22F
CLAYTON        PTSUNNY   79  57  46 S18       30.18F

$$
NMZ532>537-272000-
EASTCENTRAL PLAINS

CITY           SKY/WX    TMP DP  RH WIND       PRES   REMARKS
TUCUMCARI      CLOUDY    84  57  39 S12       30.14F
CANNON AFB     MOSUNNY   83  59  43 VRB7      30.19F
CLOVIS AIRPORT   N/A     82  55  39 SW12      30.21F

$$
NMZ028-029-538-272000-
SOUTHEAST PLAINS

CITY           SKY/WX    TMP DP  RH WIND       PRES   REMARKS
ROSWELL        MOSUNNY   79  61  53 SE5       30.16F
CARLSBAD       CLOUDY    80  62  54 W10       30.15F
HOBBS          MOSUNNY   90  54  29 S7        30.16F


$$



USA.gov is the U.S. government's official web portal to all federal, state and local government web resources and services.